Location: Unspecified
(0.0000°N, 0.0000°E)
Time: 23:53:54
(UTC+00:00)

Vanguard 2 - Pass Details

Date: 10 October 2020
Orbit: 554 x 2937 km, 32.9° (Epoch: 28 October)

Event Time Altitude Azimuth Distance (km) Brightness Sun altitude
Rises 23:17:32 0° 255° (WSW) 6,605 12.4 -79.8°
Reaches altitude 10° 23:22:14 10° 261° (W) 5,710 11.9 -80.6°
Enters shadow 23:22:52 11° 263° (W) 5,592 11.9 -80.7°
Maximum altitude 23:38:24 41° 325° (NW) 3,631 - -82.6°
Drops below altitude 10° 23:52:06 10° 31° (NNE) 4,834 - -82.8°
Sets 23:55:45 0° 39° (NE) 5,542 - -82.5°
